Location: Briis
(48.6240°N, 2.1211°E)
Time: 16:13:18
(UTC+00:00)

Nadezhda 3 Rocket - Pass Details

Date: 25 September 2020
Orbit: 957 x 999 km, 82.9° (Epoch: 21 October)

Event Time Altitude Azimuth Distance (km) Brightness Sun altitude
Exits shadow 02:27:57 66° 342° (NNW) 1,042 4.1 -30.7°
Drops below altitude 10° 02:33:17 10° 7° (N) 2,703 6.8 -30.0°
Sets 02:35:49 0° 9° (N) 3,656 7.6 -29.7°
